McCook, NE

5:12 AM CST on February 23, 2018 (GMT -0600)
McCook Municipal

Weather History for KMCK - December, 2011

Change the Weather History Date:

Monday, December 19, 2011

  Actual Average Record
Temperature  
Mean Temperature 30 °F 27 °F  
Max Temperature 35 °F 40 °F 69 °F (1979)
Min Temperature 25 °F 14 °F -15 °F (1989)
Degree Days  
Heating Degree Days 34    
Moisture  
Dew Point 25 °F    
Average Humidity 76    
Maximum Humidity 88    
Minimum Humidity 66    
Precipitation  
Precipitation 0.00 in 0.02 in 0.50 in (1973)
Month to date precipitation 0.45 0.40  
Year to date precipitation 19.65 22.29  
Sea Level Pressure  
Sea Level Pressure 30.13 in    
Wind  
Wind Speed 15 mph (NNE)    
Max Wind Speed 26 mph    
Max Gust Speed 33 mph    
Visibility 10 miles    
Events      
T = Trace of Precipitation, MM = Missing Value Source: NWS Daily Summary

Daily Weather History Graph

Daily Weather History Graph

Search for Another Location

Airport or City:

Trip Planner

Search our weather history database for the weather conditions in past years. The results will help you decide how hot, cold, wet, or windy it might be!

Date:

Astronomy

Dec. 19, 2011 Rise Set
Actual Time 8:00 AM CST 5:18 PM CST
Civil Twilight 7:29 AM CST 5:49 PM CST
Nautical Twilight 6:55 AM CST 6:23 PM CST
Astronomical Twilight 6:22 AM CST 6:56 PM CST
Moon 2:12 AM CST (12/19) 1:18 PM CST (12/19)
Length of Visible Light 10h 20m
Length of Day
9h 18m
Waning Crescent, 31% of the Moon is Illuminated
Dec 19
Waning Crescent
Dec 24
New
Jan 1
First Quarter
Jan 9
Full
Jan 16
Last Quarter

Hourly Weather History & Observations

Time (CST) Temp. Windchill Dew Point Humidity Pressure Visibility Wind Dir Wind Speed Gust Speed Precip Events Conditions
12:53 AM 27.0 °F 18.7 °F 21.9 °F 81% 29.91 in 10.0 mi NW 8.1 mph - N/A   Clear
1:53 AM 28.4 °F 22.2 °F 21.2 °F 74% 29.86 in 10.0 mi West 5.8 mph - N/A   Clear
2:53 AM 32.0 °F 25.6 °F 21.9 °F 66% 29.92 in 10.0 mi North 6.9 mph - N/A   Clear
3:53 AM 32.0 °F 23.6 °F 24.1 °F 73% 29.93 in 10.0 mi NNE 10.4 mph - N/A   Clear
4:53 AM 35.1 °F 25.9 °F 27.0 °F 72% 29.97 in 10.0 mi NNE 13.8 mph - N/A   Clear
5:53 AM 34.0 °F 24.2 °F 28.0 °F 79% 30.00 in 10.0 mi NNE 15.0 mph - N/A   Clear
6:53 AM 33.1 °F 21.5 °F 28.0 °F 82% 30.09 in 10.0 mi NNE 19.6 mph - N/A   Mostly Cloudy
7:12 AM 32.0 °F 21.6 °F 28.4 °F 87% 30.05 in 10.0 mi NNE 15.0 mph 21.9 mph N/A   Overcast
7:24 AM 32.0 °F 20.1 °F 28.4 °F 87% 30.06 in 10.0 mi NNE 19.6 mph 25.3 mph N/A   Overcast
7:53 AM 33.1 °F 19.8 °F 28.9 °F 85% 30.14 in 10.0 mi NNE 26.5 mph 31.1 mph N/A   Overcast
8:53 AM 33.1 °F 19.8 °F 28.9 °F 85% 30.18 in 8.0 mi NNE 26.5 mph 32.2 mph N/A   Overcast
9:53 AM 32.0 °F 19.8 °F 28.9 °F 88% 30.23 in 10.0 mi NNE 20.7 mph 29.9 mph N/A   Overcast
10:53 AM 32.0 °F 19.5 °F 28.0 °F 85% 30.25 in 10.0 mi NNE 21.9 mph 26.5 mph N/A   Overcast
11:53 AM 32.0 °F 19.5 °F 28.4 °F 87% 30.13 in 10.0 mi NNE 21.9 mph 32.2 mph N/A   Overcast
12:53 PM 32.0 °F 19.8 °F 28.0 °F 85% 30.19 in 10.0 mi NNE 20.7 mph 33.4 mph N/A   Overcast
1:36 PM 33.8 °F 22.8 °F 26.6 °F 75% 30.13 in 10.0 mi NNE 18.4 mph - N/A   Overcast
1:53 PM 33.1 °F 21.5 °F 27.0 °F 78% 30.21 in 10.0 mi NNE 19.6 mph - N/A   Overcast
2:28 PM 33.8 °F 22.2 °F 26.6 °F 75% 30.12 in 10.0 mi NNE 20.7 mph 27.6 mph N/A   Overcast
2:53 PM 33.1 °F 20.3 °F 24.1 °F 70% 30.17 in 10.0 mi NE 24.2 mph 29.9 mph N/A   Overcast
3:53 PM 33.1 °F 23.0 °F 24.1 °F 70% 30.24 in 10.0 mi NNE 15.0 mph - N/A   Overcast
4:53 PM 32.0 °F 20.5 °F 24.1 °F 73% 30.20 in 10.0 mi NNE 18.4 mph 25.3 mph N/A   Overcast
5:53 PM 32.0 °F 22.1 °F 23.0 °F 69% 30.23 in 10.0 mi NNE 13.8 mph - N/A   Overcast
6:53 PM 30.9 °F 18.7 °F 23.0 °F 72% 30.22 in 10.0 mi NNE 19.6 mph 24.2 mph N/A   Overcast
7:53 PM 30.9 °F 20.7 °F 21.9 °F 69% 30.27 in 10.0 mi NNE 13.8 mph - N/A   Overcast
8:53 PM 30.9 °F 19.4 °F 21.9 °F 69% 30.25 in 10.0 mi NNE 17.3 mph - N/A   Overcast
9:53 PM 30.0 °F 18.3 °F 21.0 °F 69% 30.24 in 10.0 mi North 17.3 mph 26.5 mph N/A   Overcast
10:53 PM 30.0 °F 18.7 °F 21.0 °F 69% 30.24 in 10.0 mi North 16.1 mph - N/A   Overcast
11:53 PM 28.9 °F 17.7 °F 19.0 °F 67% 30.23 in 10.0 mi North 15.0 mph - N/A   Overcast